TimeEST,TemperatureF,Dew PointF,Humidity,Sea Level PressureIn,VisibilityMPH,Wind Direction,Wind SpeedMPH,Gust SpeedMPH,PrecipitationIn,Events,Conditions,WindDirDegrees,DateUTC
12:53 AM,50.0,37.0,61,30.12,10.0,Calm,Calm,-,N/A,,Overcast,0,2012-11-21 05:53:00
1:53 AM,48.9,37.0,64,30.10,10.0,Calm,Calm,-,N/A,,Partly Cloudy,0,2012-11-21 06:53:00
2:53 AM,50.0,36.0,59,30.11,10.0,Calm,Calm,-,N/A,,Clear,0,2012-11-21 07:53:00
3:53 AM,48.9,36.0,61,30.11,10.0,Calm,Calm,-,N/A,,Partly Cloudy,0,2012-11-21 08:53:00
4:53 AM,48.9,37.9,66,30.12,10.0,Calm,Calm,-,N/A,,Partly Cloudy,0,2012-11-21 09:53:00
5:53 AM,46.9,39.0,74,30.14,10.0,Calm,Calm,-,N/A,,Clear,0,2012-11-21 10:53:00
6:53 AM,45.0,37.9,76,30.17,10.0,Calm,Calm,-,N/A,,Partly Cloudy,0,2012-11-21 11:53:00
7:53 AM,44.1,37.9,79,30.19,10.0,Calm,Calm,-,N/A,,Clear,0,2012-11-21 12:53:00
8:53 AM,48.0,39.9,74,30.20,10.0,Calm,Calm,-,N/A,,Clear,0,2012-11-21 13:53:00
9:53 AM,52.0,37.0,57,30.21,10.0,Calm,Calm,-,N/A,,Clear,0,2012-11-21 14:53:00
10:53 AM,55.9,35.1,45,30.22,10.0,Calm,Calm,-,N/A,,Clear,0,2012-11-21 15:53:00
11:53 AM,59.0,34.0,39,30.21,10.0,Calm,Calm,-,N/A,,Clear,0,2012-11-21 16:53:00
12:53 PM,60.1,30.0,32,30.19,10.0,Variable,3.5,-,N/A,,Clear,0,2012-11-21 17:53:00
1:53 PM,62.1,32.0,32,30.18,10.0,Calm,Calm,-,N/A,,Clear,0,2012-11-21 18:53:00
2:53 PM,62.1,34.0,35,30.17,10.0,Variable,3.5,-,N/A,,Clear,0,2012-11-21 19:53:00
3:53 PM,62.1,35.1,37,30.17,10.0,Calm,Calm,-,N/A,,Clear,0,2012-11-21 20:53:00
4:53 PM,60.1,35.1,39,30.18,10.0,Variable,3.5,-,N/A,,Clear,0,2012-11-21 21:53:00
5:53 PM,57.0,35.1,44,30.19,10.0,NNE,3.5,-,N/A,,Clear,20,2012-11-21 22:53:00
6:53 PM,54.0,35.1,49,30.21,10.0,Calm,Calm,-,N/A,,Clear,0,2012-11-21 23:53:00
7:53 PM,54.0,35.1,49,30.22,10.0,NE,3.5,-,N/A,,Clear,40,2012-11-22 00:53:00
8:53 PM,53.1,34.0,48,30.22,10.0,NE,3.5,-,N/A,,Clear,40,2012-11-22 01:53:00
9:53 PM,53.1,33.1,47,30.21,10.0,Calm,Calm,-,N/A,,Clear,0,2012-11-22 02:53:00
10:53 PM,52.0,33.1,49,30.20,10.0,Calm,Calm,-,N/A,,Clear,0,2012-11-22 03:53:00
11:53 PM,51.1,33.1,50,30.20,10.0,Calm,Calm,-,N/A,,Clear,0,2012-11-22 04:53:00